sat.trackr.live / text

‹ back to catalog

STARLINK-34755

NORAD 64940 · 2025-158J

PAYLOAD ACTIVE UNKNOWN

§ Identity

Operator
Country
US
Launch date
2025-07-27
Launch site
AFWTR
Launch vehicle
Mass (kg)
RCS (m²)

Purposes: comms

External: N2YO · Heavens-Above · Gunter

§ Orbital elements

Epoch: 2026-05-25T02:30:59.204160Z

Period
95.69 min
Inclination
97.4531°
Eccentricity
0.0001709
Mean motion
15.04845591 rev/d
Perigee alt
550.8 km
Apogee alt
553.2 km
Semi-major
6,930.1 km
B*
2.4621e-4
RAAN
9.3666°
Arg perigee
81.8548°
Mean anomaly
278.2872°
Rev number
4,687

§ Raw data

STARLINK-347551 64940U 25158J   26145.10485190  .00003420  00000+0  24621-3 0  99962 64940  97.4531   9.3666 0001709  81.8548 278.2872 15.04845591 46878

JSON: /api/v1/satellites/64940 · /tle

For live sub-satellite position, see the globe view (requires WebGL).

§ Visibility from observer

Set your observer location to see the next 7 days of passes ≥ 10°. The values pass through the URL so the page stays shareable.

No JS? Fill the form by hand. The geolocation button needs JavaScript.